Litchfield, MN

11:31 PM CDT on March 24, 2017 (GMT -0500)
Litchfield Municipal

Weather History for KLJF - October, 2014

Change the Weather History Date:

Wednesday, October 8, 2014

  Actual Average Record
Temperature  
Mean Temperature 44 °F -  
Max Temperature 57 °F 61 °F 87 °F (2010)
Min Temperature 32 °F 40 °F 22 °F (1989)
Degree Days  
Heating Degree Days 20    
Moisture  
Dew Point 33 °F    
Average Humidity 60    
Maximum Humidity 93    
Minimum Humidity 31    
Precipitation  
Precipitation 0.00 in - - ()
Sea Level Pressure  
Sea Level Pressure 30.01 in    
Wind  
Wind Speed 6 mph (WNW)    
Max Wind Speed 20 mph    
Max Gust Speed 26 mph    
Visibility 10 miles    
Events      
Averages and records for this station are not official NWS values.
T = Trace of Precipitation, MM = Missing Value Source: NWS Daily Summary

Daily Weather History Graph

Daily Weather History Graph

Search for Another Location

Airport or City:

Trip Planner

Search our weather history database for the weather conditions in past years. The results will help you decide how hot, cold, wet, or windy it might be!

Date:

Astronomy

Oct. 08, 2014 Rise Set
Actual Time 7:24 AM CDT 6:45 PM CDT
Civil Twilight 6:55 AM CDT 7:14 PM CDT
Nautical Twilight 6:21 AM CDT 7:48 PM CDT
Astronomical Twilight 5:47 AM CDT 8:22 PM CDT
Moon 6:58 PM CDT (10/8) 7:33 AM CDT (10/8)
Length of Visible Light 12h 19m
Length of Day
11h 20m
Full, 100% of the Moon is Illuminated
Oct 8
Full
Oct 15
Last Quarter
Oct 23
New
Oct 30
First Quarter
Nov 6
Full

Hourly Weather History & Observations

Time (CDT) Temp. Windchill Dew Point Humidity Pressure Visibility Wind Dir Wind Speed Gust Speed Precip Events Conditions
12:13 AM 46.4 °F 45.2 °F 33.8 °F 62% 29.89 in 10.0 mi West 3.5 mph - N/A   Scattered Clouds
12:32 AM 46.4 °F - 35.6 °F 66% 29.89 in 10.0 mi Calm Calm - N/A   Clear
12:53 AM 44.6 °F 43.1 °F 37.4 °F 76% 29.90 in 10.0 mi WSW 3.5 mph - N/A   Unknown
1:13 AM 44.6 °F 43.1 °F 37.4 °F 76% 29.90 in 10.0 mi WSW 3.5 mph - N/A   Clear
1:32 AM 44.6 °F 42.2 °F 37.4 °F 76% 29.90 in 10.0 mi WSW 4.6 mph - N/A   Clear
1:53 AM 44.6 °F - 37.4 °F 76% 29.91 in 10.0 mi Calm Calm - N/A   Clear
2:13 AM 42.8 °F 41.1 °F 37.4 °F 81% 29.92 in 10.0 mi WSW 3.5 mph - N/A   Clear
2:32 AM 42.8 °F 41.1 °F 37.4 °F 81% 29.93 in 10.0 mi West 3.5 mph - N/A   Clear
2:53 AM 42.8 °F 41.1 °F 37.4 °F 81% 29.93 in 10.0 mi West 3.5 mph - N/A   Clear
3:13 AM 42.8 °F 40.1 °F 37.4 °F 81% 29.92 in 10.0 mi WSW 4.6 mph - N/A   Clear
3:32 AM 42.8 °F 41.1 °F 37.4 °F 81% 29.92 in 10.0 mi West 3.5 mph - N/A   Clear
3:53 AM 42.8 °F 41.1 °F 37.4 °F 81% 29.92 in 10.0 mi West 3.5 mph - N/A   Clear
4:12 AM 42.8 °F 41.1 °F 37.4 °F 81% 29.92 in 10.0 mi West 3.5 mph - N/A   Clear
4:33 AM 42.8 °F 41.1 °F 37.4 °F 81% 29.93 in 10.0 mi West 3.5 mph - N/A   Clear
4:52 AM 42.8 °F 41.1 °F 37.4 °F 81% 29.93 in 10.0 mi WSW 3.5 mph - N/A   Clear
5:13 AM 42.8 °F 41.1 °F 37.4 °F 81% 29.94 in 10.0 mi West 3.5 mph - N/A   Clear
5:33 AM 42.8 °F 41.1 °F 37.4 °F 81% 29.94 in 10.0 mi West 3.5 mph - N/A   Clear
5:52 AM 41.0 °F 36.4 °F 37.4 °F 87% 29.95 in 10.0 mi West 6.9 mph - N/A   Clear
6:13 AM 41.0 °F 37.1 °F 37.4 °F 87% 29.95 in 10.0 mi West 5.8 mph - N/A   Clear
6:32 AM 41.0 °F 36.4 °F 37.4 °F 87% 29.96 in 10.0 mi West 6.9 mph - N/A   Clear
6:52 AM 41.0 °F 38.0 °F 37.4 °F 87% 29.96 in 10.0 mi West 4.6 mph - N/A   Clear
7:13 AM 41.0 °F 39.0 °F 37.4 °F 87% 29.97 in 10.0 mi WSW 3.5 mph - N/A   Clear
7:32 AM 39.2 °F 35.9 °F 35.6 °F 87% 29.97 in 10.0 mi West 4.6 mph - N/A   Clear
7:52 AM 39.2 °F 35.9 °F 35.6 °F 87% 29.98 in 10.0 mi West 4.6 mph - N/A   Clear
8:13 AM 42.8 °F 39.3 °F 37.4 °F 81% 29.99 in 10.0 mi West 5.8 mph - N/A   Clear
8:33 AM 42.8 °F 39.3 °F 37.4 °F 81% 29.99 in 10.0 mi West 5.8 mph - N/A   Scattered Clouds
8:52 AM 42.8 °F 38.0 °F 37.4 °F 81% 30.00 in 10.0 mi West 8.1 mph - N/A   Scattered Clouds
9:13 AM 44.6 °F 40.7 °F 37.4 °F 76% 30.00 in 10.0 mi West 6.9 mph - N/A   Clear
9:33 AM 46.4 °F 42.4 °F 37.4 °F 71% 30.01 in 10.0 mi WNW 8.1 mph - N/A   Clear
9:52 AM 48.2 °F - 35.6 °F 62% 30.01 in 10.0 mi NW 10.4 mph - N/A   Clear
10:13 AM 51.8 °F - 37.4 °F 58% 30.01 in 10.0 mi NW 9.2 mph - N/A   Clear
10:32 AM 51.8 °F - 35.6 °F 54% 30.02 in 10.0 mi NW 11.5 mph 17.3 mph N/A   Clear
10:53 AM 53.6 °F - 30.2 °F 41% 30.02 in 10.0 mi NW 13.8 mph 20.7 mph N/A   Clear
11:13 AM 53.6 °F - 28.4 °F 38% 30.02 in 10.0 mi NW 12.7 mph 19.6 mph N/A   Clear
11:32 AM 55.4 °F - 30.2 °F 38% 30.03 in 10.0 mi NW 13.8 mph 19.6 mph N/A   Clear
11:53 AM 55.4 °F - 30.2 °F 38% 30.03 in 10.0 mi NW 12.7 mph 20.7 mph N/A   Clear
12:13 PM 55.4 °F - 30.2 °F 38% 30.04 in 10.0 mi NW 12.7 mph 23.0 mph N/A   Clear
12:32 PM 55.4 °F - 30.2 °F 38% 30.03 in 10.0 mi NW 19.6 mph 24.2 mph N/A   Clear
12:53 PM 55.4 °F - 30.2 °F 38% 30.03 in 10.0 mi WNW 15.0 mph 26.5 mph N/A   Clear
1:12 PM 57.2 °F - 30.2 °F 36% 30.03 in 10.0 mi NW 18.4 mph 24.2 mph N/A   Clear
1:53 PM 57.2 °F - 30.2 °F 36% 30.03 in 10.0 mi West 12.7 mph 19.6 mph N/A   Clear
2:13 PM 57.2 °F - 30.2 °F 36% 30.03 in 10.0 mi West 12.7 mph 20.7 mph N/A   Clear
2:32 PM 57.2 °F - 30.2 °F 36% 30.03 in 10.0 mi WNW 11.5 mph 18.4 mph N/A   Clear
2:53 PM 57.2 °F - 30.2 °F 36% 30.02 in 10.0 mi WNW 16.1 mph 23.0 mph N/A   Clear
3:13 PM 57.2 °F - 26.6 °F 31% 30.03 in 10.0 mi NW 18.4 mph 23.0 mph N/A   Clear
3:32 PM 57.2 °F - 26.6 °F 31% 30.03 in 10.0 mi WNW 13.8 mph 21.9 mph N/A   Clear
3:53 PM 57.2 °F - 26.6 °F 31% 30.03 in 10.0 mi WNW 10.4 mph 23.0 mph N/A   Clear
4:12 PM 55.4 °F - 26.6 °F 33% 30.03 in 10.0 mi WNW 12.7 mph 20.7 mph N/A   Clear
4:33 PM 55.4 °F - 24.8 °F 31% 30.04 in 10.0 mi NW 15.0 mph 20.7 mph N/A   Clear
4:53 PM 55.4 °F - 26.6 °F 33% 30.04 in 10.0 mi NW 9.2 mph - N/A   Clear
5:12 PM 55.4 °F - 26.6 °F 33% 30.03 in 10.0 mi NW 8.1 mph 18.4 mph N/A   Clear
5:33 PM 53.6 °F - 26.6 °F 35% 30.03 in 10.0 mi NW 12.7 mph 17.3 mph N/A   Clear
5:53 PM 53.6 °F - 28.4 °F 38% 30.03 in 10.0 mi NW 11.5 mph 17.3 mph N/A   Clear
6:12 PM 51.8 °F - 28.4 °F 41% 30.03 in 10.0 mi NW 5.8 mph - N/A   Clear
6:33 PM 50.0 °F - 28.4 °F 43% 30.04 in 10.0 mi NW 6.9 mph - N/A   Clear
6:52 PM 48.2 °F - 28.4 °F 46% 30.04 in 10.0 mi NW 3.5 mph - N/A   Clear
7:13 PM 48.2 °F - 28.4 °F 46% 30.05 in 10.0 mi WNW 3.5 mph - N/A   Clear
7:32 PM 46.4 °F 45.2 °F 30.2 °F 53% 30.06 in 10.0 mi WNW 3.5 mph - N/A   Clear
7:53 PM 44.6 °F 43.1 °F 30.2 °F 57% 30.06 in 10.0 mi NW 3.5 mph - N/A   Clear
8:13 PM 44.6 °F 42.2 °F 30.2 °F 57% 30.06 in 10.0 mi NNW 4.6 mph - N/A   Clear
8:33 PM 44.6 °F 41.4 °F 30.2 °F 57% 30.07 in 10.0 mi NNW 5.8 mph - N/A   Clear
8:52 PM 42.8 °F 40.1 °F 30.2 °F 61% 30.07 in 10.0 mi NNW 4.6 mph - N/A   Clear
9:13 PM 32.0 °F 27.5 °F 30.2 °F 93% 30.07 in 10.0 mi NNW 4.6 mph - N/A   Clear
9:33 PM 44.6 °F 43.1 °F 30.2 °F 57% 30.08 in 10.0 mi NNW 3.5 mph - N/A   Clear
9:52 PM 42.8 °F 41.1 °F 30.2 °F 61% 30.09 in 10.0 mi NNW 3.5 mph - N/A   Clear
10:13 PM 42.8 °F 41.1 °F 30.2 °F 61% 30.09 in 10.0 mi NNW 3.5 mph - N/A   Clear
10:32 PM 42.8 °F - 30.2 °F 61% 30.10 in 10.0 mi Calm Calm - N/A   Clear
10:52 PM 42.8 °F - 30.2 °F 61% 30.11 in 10.0 mi Calm Calm - N/A   Clear
11:00 PM 41.0 °F - 30.2 °F 65% 30.11 in 10.0 mi Calm Calm - N/A   Clear
11:33 PM 41.0 °F 39.0 °F 28.4 °F 61% 30.12 in 10.0 mi NW 3.5 mph - N/A   Clear
11:52 PM 41.0 °F 38.0 °F 28.4 °F 61% 30.12 in 10.0 mi NW 4.6 mph - N/A   Clear